Home > Weather > Blackpool > Past weeks

Flag for United Kingdom Past Weather in Blackpool, England, United Kingdom — Yesterday and Last 2 Weeks

Now
64 °F

Light rain. Scattered clouds.


Feels Like: 64 °F
Forecast: 59 / 62 °F
Wind: 17 mph from Southwest

Location: Blackpool Airport

Current Time: Jul 26, 2016 at 8:57:58 PM

Latest Report: Jul 26, 2016 at 8:20 PM


Visibility: N/A

Pressure: 30.01 "Hg

Humidity: 83%

Dew Point: 59 °F

Location of BlackpoolLocation

Past Weather in Blackpool — Graph

°F

Blackpool Temperature Yesterday

Maximum temperature yesterday: 64 °F (at 3:50 PM)
Minimum temperature yesterday: 59 °F (at 6:20 AM)
Average temperature yesterday: 62 °F

High & Low Weather Summary for the Past Weeks

 TemperatureHumidityPressure
High88 °F (Jul 19, 2:50 PM)100% (Jul 15, 2:50 PM)30.30 "Hg (Jul 15, 2:50 PM)
Low55 °F (Jul 13, 6:20 AM)40% (Jul 19, 4:20 PM)29.71 "Hg (Jul 20, 6:20 AM)
Average65 °F76%30.06 "Hg
* Reported Jul 11 7:20 PM — Jul 26 7:20 PM, Blackpool, Weather by CustomWeather, © 2016

Note: Actual official high and low records may vary slightly from our data, if they occured in-between our weather recording intervals... More about our weather records

Advertising

Blackpool Weather History for the Previous 24 Hours

Scroll right to see more
 ConditionsComfort  
Time TempWeatherWind HumidityBarometerVisibility
7:20 PM
Tue, Jul 26
64 °FPassing clouds.12 mph78%30.01 "HgN/A
6:50 PM64 °FPassing clouds.9 mph78%30.04 "HgN/A
6:20 PM64 °FPassing clouds.10 mph78%30.04 "HgN/A
5:50 PM64 °FScattered clouds.13 mph78%30.04 "HgN/A
5:20 PM64 °FScattered clouds.14 mph78%30.04 "HgN/A
4:50 PM64 °FPassing clouds.14 mph78%30.07 "HgN/A
4:20 PM64 °FPassing clouds.14 mph78%30.07 "HgN/A
3:50 PM66 °FPassing clouds.14 mph78%30.07 "HgN/A
3:20 PM66 °FPassing clouds.15 mph78%30.09 "HgN/A
2:20 PM66 °FScattered clouds.14 mph73%30.09 "HgN/A
1:50 PM66 °FScattered clouds.16 mph78%30.09 "HgN/A
1:20 PM66 °FScattered clouds.18 mph78%30.09 "HgN/A
12:50 PM63 °FScattered clouds.12 mph83%30.09 "HgN/A
12:20 PM63 °FScattered clouds.9 mph83%30.09 "HgN/A
11:50 AM61 °FScattered clouds.8 mph88%30.09 "HgN/A
11:20 AM61 °FScattered clouds.9 mph83%30.09 "HgN/A
10:50 AM64 °FPartly sunny.10 mph73%30.12 "HgN/A
10:20 AM63 °FPartly sunny.12 mph83%30.12 "HgN/A
9:50 AM63 °FPartly sunny.13 mph77%30.12 "HgN/A
9:20 AM61 °FPartly sunny.13 mph83%30.12 "HgN/A
8:50 AM63 °FScattered clouds.13 mph83%30.12 "HgN/A
8:20 AM61 °FScattered clouds.13 mph88%30.09 "HgN/A
7:50 AM61 °FScattered clouds.14 mph88%30.09 "HgN/A
7:20 AM61 °FScattered clouds.14 mph88%30.09 "HgN/A
6:20 AM59 °FScattered clouds.16 mph94%30.09 "HgN/A
8:50 PM
Mon, Jul 25
61 °FPassing clouds.14 mph83%30.09 "HgN/A
8:20 PM61 °FPassing clouds.14 mph77%30.09 "HgN/A
Weather by CustomWeather, © 2016

See weather overviewHow to use our weather pages